Location: Mountain Grove
(34.0887°N, 86.6172°W)
Time: 21:57:54
(UTC+00:00)

CZ-2C R/B - Pass Details

Date: 14 July 2020
Orbit: 667 x 785 km, 98.2° (Epoch: 08 August)

Event Time Altitude Azimuth Distance (km) Brightness Sun altitude
Rises 08:55:40 0° 28° (NNE) 3,092 7.0 -19.3°
Reaches altitude 10° 08:58:22 10° 43° (NE) 2,150 6.1 -18.9°
Maximum altitude 09:02:05 23° 95° (E) 1,437 4.4 -18.4°
Drops below altitude 10° 09:05:42 10° 148° (SSE) 2,099 4.7 -17.8°
Enters shadow 09:07:45 - 160° (SSE) 2,799 5.2 -17.5°
